Time,TemperatureF,DewpointF,PressureIn,WindDirection,WindDirectionDegrees,WindSpeedMPH,WindSpeedGustMPH,Humidity,HourlyPrecipIn,Conditions,Clouds,dailyrainin,SoftwareType,DateUTC
2013-01-10 00:00:00,45.2,34.5,30.25,WNW,298,5.0,11.0,66,0.00,,,0.00,LWC V2.11 B50,2013-01-10 05:00:00,
2013-01-10 00:05:00,45.3,34.6,30.25,WNW,295,2.0,5.0,66,0.00,,,0.00,LWC V2.11 B50,2013-01-10 05:05:00,
2013-01-10 00:10:00,45.2,34.5,30.25,WNW,282,2.0,5.0,66,0.00,,,0.00,LWC V2.11 B50,2013-01-10 05:10:00,
2013-01-10 00:15:00,45.1,34.0,30.25,West,269,1.0,7.0,65,0.00,,,0.00,LWC V2.11 B50,2013-01-10 05:15:00,
2013-01-10 00:20:00,45.1,34.0,30.26,WNW,292,3.0,9.0,65,0.00,,,0.00,LWC V2.11 B50,2013-01-10 05:20:00,
2013-01-10 00:25:00,45.0,34.0,30.26,West,279,2.0,12.0,65,0.00,,,0.00,LWC V2.11 B50,2013-01-10 05:25:00,
2013-01-10 00:30:00,44.9,33.9,30.26,West,273,2.0,5.0,65,0.00,,,0.00,LWC V2.11 B50,2013-01-10 05:30:00,
2013-01-10 00:35:00,44.7,34.0,30.26,West,260,0.0,4.0,66,0.00,,,0.00,LWC V2.11 B50,2013-01-10 05:35:00,
2013-01-10 00:40:00,44.4,34.1,30.26,West,281,3.0,7.0,67,0.00,,,0.00,LWC V2.11 B50,2013-01-10 05:40:00,
2013-01-10 00:45:00,44.1,33.9,30.26,West,269,1.0,7.0,67,0.00,,,0.00,LWC V2.11 B50,2013-01-10 05:45:00,
2013-01-10 00:50:00,44.1,33.9,30.26,WNW,294,6.0,7.0,67,0.00,,,0.00,LWC V2.11 B50,2013-01-10 05:50:00,
2013-01-10 00:55:00,44.0,33.8,30.26,WNW,292,1.0,6.0,67,0.00,,,0.00,LWC V2.11 B50,2013-01-10 05:55:00,
2013-01-10 01:00:00,44.0,33.4,30.27,WNW,289,4.0,14.0,66,0.00,,,0.00,LWC V2.11 B50,2013-01-10 06:00:00,
2013-01-10 01:05:00,43.9,33.3,30.27,WNW,283,1.0,5.0,66,0.00,,,0.00,LWC V2.11 B50,2013-01-10 06:05:00,
2013-01-10 01:10:00,43.9,33.3,30.28,West,275,1.0,3.0,66,0.00,,,0.00,LWC V2.11 B50,2013-01-10 06:10:00,
2013-01-10 01:15:00,43.8,33.2,30.28,WNW,295,9.0,9.0,66,0.00,,,0.00,LWC V2.11 B50,2013-01-10 06:15:00,
2013-01-10 01:20:00,43.9,32.9,30.28,West,278,3.0,10.0,65,0.00,,,0.00,LWC V2.11 B50,2013-01-10 06:20:00,
2013-01-10 01:25:00,44.1,32.7,30.28,WNW,290,1.0,4.0,64,0.00,,,0.00,LWC V2.11 B50,2013-01-10 06:25:00,
2013-01-10 01:30:00,44.1,32.3,30.29,WNW,299,5.0,7.0,63,0.00,,,0.00,LWC V2.11 B50,2013-01-10 06:30:00,
2013-01-10 01:35:00,44.2,32.0,30.30,West,279,2.0,3.0,62,0.00,,,0.00,LWC V2.11 B50,2013-01-10 06:35:00,
2013-01-10 01:40:00,44.3,32.1,30.30,WNW,294,11.0,11.0,62,0.00,,,0.00,LWC V2.11 B50,2013-01-10 06:40:00,
2013-01-10 01:45:00,44.4,31.8,30.30,WNW,300,3.0,11.0,61,0.00,,,0.00,LWC V2.11 B50,2013-01-10 06:45:00,
2013-01-10 01:50:00,44.3,31.7,30.30,WNW,294,4.0,7.0,61,0.00,,,0.00,LWC V2.11 B50,2013-01-10 06:50:00,
2013-01-10 01:55:00,44.4,31.8,30.31,West,278,6.0,13.0,61,0.00,,,0.00,LWC V2.11 B50,2013-01-10 06:55:00,
2013-01-10 02:00:00,44.6,31.6,30.31,West,281,2.0,10.0,60,0.00,,,0.00,LWC V2.11 B50,2013-01-10 07:00:00,
2013-01-10 02:05:00,44.4,31.4,30.31,WNW,297,6.0,10.0,60,0.00,,,0.00,LWC V2.11 B50,2013-01-10 07:05:00,
2013-01-10 02:10:00,44.2,31.6,30.31,WNW,293,6.0,7.0,61,0.00,,,0.00,LWC V2.11 B50,2013-01-10 07:10:00,
2013-01-10 02:15:00,44.1,31.1,30.32,WNW,283,3.0,9.0,60,0.00,,,0.00,LWC V2.11 B50,2013-01-10 07:15:00,
2013-01-10 02:20:00,44.0,31.4,30.32,NW,304,5.0,10.0,61,0.00,,,0.00,LWC V2.11 B50,2013-01-10 07:20:00,
2013-01-10 02:25:00,43.9,30.9,30.32,WNW,294,4.0,9.0,60,0.00,,,0.00,LWC V2.11 B50,2013-01-10 07:25:00,
2013-01-10 02:30:00,43.8,30.8,30.32,WNW,288,4.0,7.0,60,0.00,,,0.00,LWC V2.11 B50,2013-01-10 07:30:00,
2013-01-10 02:35:00,43.8,30.8,30.32,WNW,286,1.0,9.0,60,0.00,,,0.00,LWC V2.11 B50,2013-01-10 07:35:00,
2013-01-10 02:40:00,43.8,30.8,30.32,West,271,4.0,14.0,60,0.00,,,0.00,LWC V2.11 B50,2013-01-10 07:40:00,
2013-01-10 02:45:00,43.5,30.5,30.32,West,271,3.0,9.0,60,0.00,,,0.00,LWC V2.11 B50,2013-01-10 07:45:00,
2013-01-10 02:50:00,43.3,30.4,30.32,WNW,294,7.0,10.0,60,0.00,,,0.00,LWC V2.11 B50,2013-01-10 07:50:00,
2013-01-10 02:55:00,43.4,30.5,30.32,WNW,298,4.0,9.0,60,0.00,,,0.00,LWC V2.11 B50,2013-01-10 07:55:00,
2013-01-10 03:00:00,43.5,30.5,30.33,WNW,299,5.0,6.0,60,0.00,,,0.00,LWC V2.11 B50,2013-01-10 08:00:00,
2013-01-10 03:05:00,43.4,30.0,30.33,West,279,1.0,11.0,59,0.00,,,0.00,LWC V2.11 B50,2013-01-10 08:05:00,
2013-01-10 03:10:00,43.3,29.9,30.33,WNW,286,2.0,4.0,59,0.00,,,0.00,LWC V2.11 B50,2013-01-10 08:10:00,
2013-01-10 03:15:00,43.1,30.2,30.34,West,276,2.0,5.0,60,0.00,,,0.00,LWC V2.11 B50,2013-01-10 08:15:00,
2013-01-10 03:20:00,42.8,29.9,30.33,West,271,5.0,6.0,60,0.00,,,0.00,LWC V2.11 B50,2013-01-10 08:20:00,
2013-01-10 03:25:00,42.7,29.8,30.33,WNW,288,2.0,8.0,60,0.00,,,0.00,LWC V2.11 B50,2013-01-10 08:25:00,
2013-01-10 03:30:00,42.7,29.8,30.33,WNW,285,3.0,10.0,60,0.00,,,0.00,LWC V2.11 B50,2013-01-10 08:30:00,
2013-01-10 03:35:00,42.6,29.7,30.33,WNW,298,2.0,5.0,60,0.00,,,0.00,LWC V2.11 B50,2013-01-10 08:35:00,
2013-01-10 03:40:00,42.5,29.6,30.34,NW,305,3.0,6.0,60,0.00,,,0.00,LWC V2.11 B50,2013-01-10 08:40:00,
2013-01-10 03:45:00,42.4,29.5,30.34,WNW,296,3.0,5.0,60,0.00,,,0.00,LWC V2.11 B50,2013-01-10 08:45:00,
2013-01-10 03:50:00,42.3,29.4,30.34,WNW,286,0.0,5.0,60,0.00,,,0.00,LWC V2.11 B50,2013-01-10 08:50:00,
2013-01-10 03:55:00,42.1,29.6,30.34,WNW,282,1.0,6.0,61,0.00,,,0.00,LWC V2.11 B50,2013-01-10 08:55:00,
2013-01-10 04:00:00,41.8,29.4,30.34,West,281,1.0,3.0,61,0.00,,,0.00,LWC V2.11 B50,2013-01-10 09:00:00,
2013-01-10 04:05:00,41.7,29.3,30.34,WNW,286,1.0,2.0,61,0.00,,,0.00,LWC V2.11 B50,2013-01-10 09:05:00,
2013-01-10 04:10:00,41.6,29.6,30.33,NW,304,2.0,5.0,62,0.00,,,0.00,LWC V2.11 B50,2013-01-10 09:10:00,
2013-01-10 04:15:00,41.5,29.1,30.33,WNW,282,2.0,5.0,61,0.00,,,0.00,LWC V2.11 B50,2013-01-10 09:15:00,
2013-01-10 04:20:00,41.5,29.1,30.33,WNW,292,0.0,9.0,61,0.00,,,0.00,LWC V2.11 B50,2013-01-10 09:20:00,
2013-01-10 04:25:00,41.4,29.0,30.33,WNW,284,0.0,3.0,61,0.00,,,0.00,LWC V2.11 B50,2013-01-10 09:25:00,
2013-01-10 04:30:00,41.2,29.2,30.34,WNW,284,0.0,2.0,62,0.00,,,0.00,LWC V2.11 B50,2013-01-10 09:30:00,
2013-01-10 04:35:00,41.1,29.1,30.34,WNW,294,4.0,6.0,62,0.00,,,0.00,LWC V2.11 B50,2013-01-10 09:35:00,
2013-01-10 04:40:00,41.0,29.0,30.34,WNW,290,2.0,6.0,62,0.00,,,0.00,LWC V2.11 B50,2013-01-10 09:40:00,
2013-01-10 04:45:00,40.8,28.8,30.34,WNW,301,2.0,4.0,62,0.00,,,0.00,LWC V2.11 B50,2013-01-10 09:45:00,
2013-01-10 04:50:00,40.5,28.9,30.34,WNW,299,2.0,3.0,63,0.00,,,0.00,LWC V2.11 B50,2013-01-10 09:50:00,
2013-01-10 04:55:00,40.5,28.9,30.34,WNW,286,4.0,6.0,63,0.00,,,0.00,LWC V2.11 B50,2013-01-10 09:55:00,
2013-01-10 05:00:00,40.5,28.9,30.33,WNW,288,3.0,6.0,63,0.00,,,0.00,LWC V2.11 B50,2013-01-10 10:00:00,
2013-01-10 05:05:00,40.7,28.7,30.34,West,279,0.0,3.0,62,0.00,,,0.00,LWC V2.11 B50,2013-01-10 10:05:00,
2013-01-10 05:10:00,40.6,28.6,30.34,WNW,296,1.0,5.0,62,0.00,,,0.00,LWC V2.11 B50,2013-01-10 10:10:00,
2013-01-10 05:15:00,40.7,28.7,30.34,West,277,2.0,3.0,62,0.00,,,0.00,LWC V2.11 B50,2013-01-10 10:15:00,
2013-01-10 05:20:00,40.7,28.7,30.34,NW,306,1.0,9.0,62,0.00,,,0.00,LWC V2.11 B50,2013-01-10 10:20:00,
2013-01-10 05:25:00,40.7,28.7,30.35,WNW,295,1.0,6.0,62,0.00,,,0.00,LWC V2.11 B50,2013-01-10 10:25:00,
2013-01-10 05:30:00,40.8,28.8,30.35,WNW,288,1.0,9.0,62,0.00,,,0.00,LWC V2.11 B50,2013-01-10 10:30:00,
2013-01-10 05:35:00,40.7,28.7,30.35,WNW,298,3.0,5.0,62,0.00,,,0.00,LWC V2.11 B50,2013-01-10 10:35:00,
2013-01-10 05:40:00,40.6,28.6,30.36,WNW,294,2.0,3.0,62,0.00,,,0.00,LWC V2.11 B50,2013-01-10 10:40:00,
2013-01-10 05:45:00,40.5,28.5,30.36,WNW,295,0.0,4.0,62,0.00,,,0.00,LWC V2.11 B50,2013-01-10 10:45:00,
2013-01-10 05:50:00,40.3,28.7,30.36,WNW,290,1.0,2.0,63,0.00,,,0.00,LWC V2.11 B50,2013-01-10 10:50:00,
2013-01-10 05:55:00,40.4,28.8,30.37,WNW,287,0.0,5.0,63,0.00,,,0.00,LWC V2.11 B50,2013-01-10 10:55:00,
2013-01-10 06:00:00,40.5,28.9,30.37,NNW,333,2.0,6.0,63,0.00,,,0.00,LWC V2.11 B50,2013-01-10 11:00:00,
2013-01-10 06:05:00,40.6,29.0,30.37,WNW,294,2.0,5.0,63,0.00,,,0.00,LWC V2.11 B50,2013-01-10 11:05:00,
2013-01-10 06:10:00,40.6,29.0,30.37,NW,310,0.0,4.0,63,0.00,,,0.00,LWC V2.11 B50,2013-01-10 11:10:00,
2013-01-10 06:15:00,40.5,28.9,30.38,WNW,288,0.0,2.0,63,0.00,,,0.00,LWC V2.11 B50,2013-01-10 11:15:00,
2013-01-10 06:20:00,40.4,28.8,30.38,WNW,288,0.0,4.0,63,0.00,,,0.00,LWC V2.11 B50,2013-01-10 11:20:00,
2013-01-10 06:25:00,40.3,28.7,30.38,WNW,285,0.0,6.0,63,0.00,,,0.00,LWC V2.11 B50,2013-01-10 11:25:00,
2013-01-10 06:30:00,40.2,28.6,30.38,WNW,284,0.0,3.0,63,0.00,,,0.00,LWC V2.11 B50,2013-01-10 11:30:00,
2013-01-10 06:35:00,40.0,28.8,30.39,WNW,286,0.0,0.0,64,0.00,,,0.00,LWC V2.11 B50,2013-01-10 11:35:00,
2013-01-10 06:40:00,39.9,28.7,30.39,WSW,252,0.0,0.0,64,0.00,,,0.00,LWC V2.11 B50,2013-01-10 11:40:00,
2013-01-10 06:45:00,39.8,28.6,30.39,West,279,0.0,0.0,64,0.00,,,0.00,LWC V2.11 B50,2013-01-10 11:45:00,
2013-01-10 06:50:00,39.6,28.4,30.41,WSW,250,0.0,0.0,64,0.00,,,0.00,LWC V2.11 B50,2013-01-10 11:50:00,
2013-01-10 06:55:00,39.5,28.7,30.41,WSW,251,0.0,0.0,65,0.00,,,0.00,LWC V2.11 B50,2013-01-10 11:55:00,
2013-01-10 07:00:00,39.3,28.5,30.41,WSW,251,0.0,0.0,65,0.00,,,0.00,LWC V2.11 B50,2013-01-10 12:00:00,
2013-01-10 07:05:00,39.1,28.3,30.41,West,265,0.0,0.0,65,0.00,,,0.00,LWC V2.11 B50,2013-01-10 12:05:00,
2013-01-10 07:10:00,38.8,28.4,30.41,WNW,285,0.0,0.0,66,0.00,,,0.00,LWC V2.11 B50,2013-01-10 12:10:00,
2013-01-10 07:15:00,38.3,28.3,30.41,WNW,285,0.0,0.0,67,0.00,,,0.00,LWC V2.11 B50,2013-01-10 12:15:00,
2013-01-10 07:20:00,38.3,28.3,30.42,WNW,285,0.0,0.0,67,0.00,,,0.00,LWC V2.11 B50,2013-01-10 12:20:00,
2013-01-10 07:25:00,38.2,28.2,30.42,WNW,285,0.0,0.0,67,0.00,,,0.00,LWC V2.11 B50,2013-01-10 12:25:00,
2013-01-10 07:30:00,38.2,28.2,30.42,WNW,285,0.0,0.0,67,0.00,,,0.00,LWC V2.11 B50,2013-01-10 12:30:00,
2013-01-10 07:35:00,38.1,28.5,30.43,WNW,284,0.0,0.0,68,0.00,,,0.00,LWC V2.11 B50,2013-01-10 12:35:00,
2013-01-10 07:40:00,38.1,28.5,30.43,WNW,285,0.0,0.0,68,0.00,,,0.00,LWC V2.11 B50,2013-01-10 12:40:00,
2013-01-10 07:45:00,38.1,28.5,30.43,WNW,285,0.0,0.0,68,0.00,,,0.00,LWC V2.11 B50,2013-01-10 12:45:00,
2013-01-10 07:50:00,38.0,28.7,30.43,WNW,298,0.0,0.0,69,0.00,,,0.00,LWC V2.11 B50,2013-01-10 12:50:00,
2013-01-10 07:55:00,38.2,28.6,30.43,WNW,298,0.0,0.0,68,0.00,,,0.00,LWC V2.11 B50,2013-01-10 12:55:00,
2013-01-10 08:00:00,38.4,28.8,30.44,WNW,291,0.0,0.0,68,0.00,,,0.00,LWC V2.11 B50,2013-01-10 13:00:00,
2013-01-10 08:05:00,38.8,28.8,30.45,WNW,291,0.0,0.0,67,0.00,,,0.00,LWC V2.11 B50,2013-01-10 13:05:00,
2013-01-10 08:10:00,38.9,28.9,30.45,WNW,291,0.0,0.0,67,0.00,,,0.00,LWC V2.11 B50,2013-01-10 13:10:00,
2013-01-10 08:15:00,39.1,29.1,30.45,WNW,291,3.0,3.0,67,0.00,,,0.00,LWC V2.11 B50,2013-01-10 13:15:00,
2013-01-10 08:20:00,39.2,29.2,30.45,WNW,300,1.0,3.0,67,0.00,,,0.00,LWC V2.11 B50,2013-01-10 13:20:00,
2013-01-10 08:25:00,39.3,28.9,30.45,WNW,302,1.0,4.0,66,0.00,,,0.00,LWC V2.11 B50,2013-01-10 13:25:00,
2013-01-10 08:30:00,39.5,29.1,30.45,WNW,300,3.0,5.0,66,0.00,,,0.00,LWC V2.11 B50,2013-01-10 13:30:00,
2013-01-10 08:35:00,39.7,29.3,30.45,West,281,3.0,6.0,66,0.00,,,0.00,LWC V2.11 B50,2013-01-10 13:35:00,
2013-01-10 08:40:00,39.9,29.5,30.45,West,281,4.0,4.0,66,0.00,,,0.00,LWC V2.11 B50,2013-01-10 13:40:00,
2013-01-10 08:45:00,40.1,29.3,30.45,WNW,296,2.0,6.0,65,0.00,,,0.00,LWC V2.11 B50,2013-01-10 13:45:00,
2013-01-10 08:50:00,40.3,29.1,30.46,WNW,296,0.0,4.0,64,0.00,,,0.00,LWC V2.11 B50,2013-01-10 13:50:00,
2013-01-10 08:55:00,40.5,29.3,30.46,WNW,287,1.0,3.0,64,0.00,,,0.00,LWC V2.11 B50,2013-01-10 13:55:00,
2013-01-10 09:00:00,40.8,29.6,30.47,WNW,294,2.0,4.0,64,0.00,,,0.00,LWC V2.11 B50,2013-01-10 14:00:00,
2013-01-10 09:05:00,41.0,29.4,30.46,WNW,294,0.0,2.0,63,0.00,,,0.00,LWC V2.11 B50,2013-01-10 14:05:00,
2013-01-10 09:10:00,41.1,29.5,30.47,WNW,302,1.0,5.0,63,0.00,,,0.00,LWC V2.11 B50,2013-01-10 14:10:00,
2013-01-10 09:15:00,41.3,29.7,30.46,WNW,302,5.0,8.0,63,0.00,,,0.00,LWC V2.11 B50,2013-01-10 14:15:00,
2013-01-10 09:20:00,41.5,29.5,30.47,West,279,3.0,7.0,62,0.00,,,0.00,LWC V2.11 B50,2013-01-10 14:20:00,
2013-01-10 09:25:00,41.6,29.6,30.47,WNW,303,1.0,6.0,62,0.00,,,0.00,LWC V2.11 B50,2013-01-10 14:25:00,
2013-01-10 09:30:00,42.0,29.9,30.46,WNW,284,0.0,6.0,62,0.00,,,0.00,LWC V2.11 B50,2013-01-10 14:30:00,
2013-01-10 09:35:00,42.1,29.6,30.47,WNW,298,3.0,10.0,61,0.00,,,0.00,LWC V2.11 B50,2013-01-10 14:35:00,
2013-01-10 09:40:00,42.2,29.7,30.47,WNW,300,1.0,2.0,61,0.00,,,0.00,LWC V2.11 B50,2013-01-10 14:40:00,
2013-01-10 09:45:00,42.3,29.4,30.48,WNW,290,0.0,9.0,60,0.00,,,0.00,LWC V2.11 B50,2013-01-10 14:45:00,
2013-01-10 09:50:00,42.4,29.9,30.48,NW,315,0.0,1.0,61,0.00,,,0.00,LWC V2.11 B50,2013-01-10 14:50:00,
2013-01-10 09:55:00,42.6,29.7,30.48,West,271,2.0,10.0,60,0.00,,,0.00,LWC V2.11 B50,2013-01-10 14:55:00,
2013-01-10 10:00:00,42.8,29.9,30.48,WNW,302,0.0,7.0,60,0.00,,,0.00,LWC V2.11 B50,2013-01-10 15:00:00,
2013-01-10 10:05:00,43.1,29.8,30.49,WNW,293,6.0,7.0,59,0.00,,,0.00,LWC V2.11 B50,2013-01-10 15:05:00,
2013-01-10 10:10:00,43.2,30.3,30.48,WNW,303,3.0,6.0,60,0.00,,,0.00,LWC V2.11 B50,2013-01-10 15:10:00,
2013-01-10 10:15:00,43.5,30.1,30.48,West,277,0.0,5.0,59,0.00,,,0.00,LWC V2.11 B50,2013-01-10 15:15:00,
2013-01-10 10:20:00,43.8,30.4,30.48,WNW,287,0.0,2.0,59,0.00,,,0.00,LWC V2.11 B50,2013-01-10 15:20:00,
2013-01-10 10:25:00,44.3,30.9,30.49,West,280,3.0,5.0,59,0.00,,,0.00,LWC V2.11 B50,2013-01-10 15:25:00,
2013-01-10 10:30:00,44.6,30.7,30.49,WNW,295,1.0,5.0,58,0.00,,,0.00,LWC V2.11 B50,2013-01-10 15:30:00,
2013-01-10 10:35:00,44.6,30.7,30.49,West,271,4.0,6.0,58,0.00,,,0.00,LWC V2.11 B50,2013-01-10 15:35:00,
2013-01-10 10:40:00,44.6,30.3,30.48,WNW,294,0.0,7.0,57,0.00,,,0.00,LWC V2.11 B50,2013-01-10 15:40:00,
2013-01-10 10:45:00,44.9,30.6,30.48,WNW,288,10.0,13.0,57,0.00,,,0.00,LWC V2.11 B50,2013-01-10 15:45:00,
2013-01-10 10:50:00,44.9,30.2,30.48,WNW,302,0.0,6.0,56,0.00,,,0.00,LWC V2.11 B50,2013-01-10 15:50:00,
2013-01-10 10:55:00,44.9,30.2,30.48,NW,314,0.0,9.0,56,0.00,,,0.00,LWC V2.11 B50,2013-01-10 15:55:00,
2013-01-10 11:00:00,45.1,30.4,30.48,WNW,294,1.0,1.0,56,0.00,,,0.00,LWC V2.11 B50,2013-01-10 16:00:00,
2013-01-10 11:05:00,45.5,30.7,30.47,WNW,285,2.0,5.0,56,0.00,,,0.00,LWC V2.11 B50,2013-01-10 16:05:00,
2013-01-10 11:10:00,45.5,30.7,30.47,WNW,292,6.0,10.0,56,0.00,,,0.00,LWC V2.11 B50,2013-01-10 16:10:00,
2013-01-10 11:15:00,45.5,30.3,30.47,WNW,290,0.0,1.0,55,0.00,,,0.00,LWC V2.11 B50,2013-01-10 16:15:00,
2013-01-10 11:20:00,45.6,30.4,30.47,WNW,295,0.0,12.0,55,0.00,,,0.00,LWC V2.11 B50,2013-01-10 16:20:00,
2013-01-10 11:25:00,45.6,30.8,30.47,NW,306,4.0,4.0,56,0.00,,,0.00,LWC V2.11 B50,2013-01-10 16:25:00,
2013-01-10 11:30:00,45.8,31.0,30.46,WNW,302,3.0,3.0,56,0.00,,,0.00,LWC V2.11 B50,2013-01-10 16:30:00,
2013-01-10 11:35:00,46.1,30.4,30.46,WNW,284,0.0,4.0,54,0.00,,,0.00,LWC V2.11 B50,2013-01-10 16:35:00,
2013-01-10 11:40:00,46.4,30.7,30.46,NW,308,7.0,10.0,54,0.00,,,0.00,LWC V2.11 B50,2013-01-10 16:40:00,
2013-01-10 11:45:00,46.3,31.0,30.46,West,281,0.0,6.0,55,0.00,,,0.00,LWC V2.11 B50,2013-01-10 16:45:00,
2013-01-10 11:50:00,46.4,30.7,30.45,WNW,286,2.0,6.0,54,0.00,,,0.00,LWC V2.11 B50,2013-01-10 16:50:00,
2013-01-10 11:55:00,46.4,31.1,30.45,WNW,287,1.0,4.0,55,0.00,,,0.00,LWC V2.11 B50,2013-01-10 16:55:00,
2013-01-10 12:00:00,46.4,31.1,30.45,NW,306,0.0,3.0,55,0.00,,,0.00,LWC V2.11 B50,2013-01-10 17:00:00,
2013-01-10 12:05:00,46.3,30.6,30.45,NW,319,0.0,3.0,54,0.00,,,0.00,LWC V2.11 B50,2013-01-10 17:05:00,
2013-01-10 12:10:00,46.1,30.4,30.44,WNW,299,1.0,3.0,54,0.00,,,0.00,LWC V2.11 B50,2013-01-10 17:10:00,
2013-01-10 12:15:00,46.5,30.8,30.44,NW,326,1.0,4.0,54,0.00,,,0.00,LWC V2.11 B50,2013-01-10 17:15:00,
2013-01-10 12:20:00,46.7,30.9,30.44,WNW,291,0.0,7.0,54,0.00,,,0.00,LWC V2.11 B50,2013-01-10 17:20:00,
2013-01-10 12:25:00,46.7,30.9,30.44,SW,227,2.0,2.0,54,0.00,,,0.00,LWC V2.11 B50,2013-01-10 17:25:00,
2013-01-10 12:30:00,47.1,30.4,30.44,NW,310,3.0,12.0,52,0.00,,,0.00,LWC V2.11 B50,2013-01-10 17:30:00,
2013-01-10 12:35:00,47.0,30.8,30.44,WNW,285,0.0,10.0,53,0.00,,,0.00,LWC V2.11 B50,2013-01-10 17:35:00,
2013-01-10 12:40:00,47.2,31.4,30.44,West,274,2.0,2.0,54,0.00,,,0.00,LWC V2.11 B50,2013-01-10 17:40:00,
2013-01-10 12:45:00,47.5,31.7,30.44,WNW,294,1.0,1.0,54,0.00,,,0.00,LWC V2.11 B50,2013-01-10 17:45:00,
2013-01-10 12:50:00,47.7,30.5,30.44,WNW,300,6.0,13.0,51,0.00,,,0.00,LWC V2.11 B50,2013-01-10 17:50:00,
2013-01-10 12:55:00,47.7,30.9,30.44,WNW,296,0.0,2.0,52,0.00,,,0.00,LWC V2.11 B50,2013-01-10 17:55:00,
2013-01-10 13:00:00,47.7,30.5,30.44,NW,321,1.0,9.0,51,0.00,,,0.00,LWC V2.11 B50,2013-01-10 18:00:00,
2013-01-10 13:05:00,48.0,30.7,30.44,WNW,284,0.0,6.0,51,0.00,,,0.00,LWC V2.11 B50,2013-01-10 18:05:00,
2013-01-10 13:10:00,48.1,30.8,30.44,WNW,293,0.0,7.0,51,0.00,,,0.00,LWC V2.11 B50,2013-01-10 18:10:00,
2013-01-10 13:15:00,47.9,30.7,30.43,WNW,294,9.0,11.0,51,0.00,,,0.00,LWC V2.11 B50,2013-01-10 18:15:00,
2013-01-10 13:20:00,47.8,30.6,30.43,WNW,293,0.0,8.0,51,0.00,,,0.00,LWC V2.11 B50,2013-01-10 18:20:00,
2013-01-10 13:25:00,47.8,30.6,30.43,WNW,291,0.0,2.0,51,0.00,,,0.00,LWC V2.11 B50,2013-01-10 18:25:00,
2013-01-10 13:30:00,48.0,30.7,30.44,WNW,288,6.0,7.0,51,0.00,,,0.00,LWC V2.11 B50,2013-01-10 18:30:00,
2013-01-10 13:35:00,48.2,30.9,30.43,WNW,292,5.0,11.0,51,0.00,,,0.00,LWC V2.11 B50,2013-01-10 18:35:00,
2013-01-10 13:40:00,48.2,30.4,30.44,WNW,298,0.0,2.0,50,0.00,,,0.00,LWC V2.11 B50,2013-01-10 18:40:00,
2013-01-10 13:45:00,48.3,30.5,30.44,WNW,299,3.0,3.0,50,0.00,,,0.00,LWC V2.11 B50,2013-01-10 18:45:00,
2013-01-10 13:50:00,48.2,30.9,30.44,WNW,282,6.0,7.0,51,0.00,,,0.00,LWC V2.11 B50,2013-01-10 18:50:00,
2013-01-10 13:55:00,48.3,31.0,30.44,WNW,302,9.0,12.0,51,0.00,,,0.00,LWC V2.11 B50,2013-01-10 18:55:00,
2013-01-10 14:00:00,47.9,30.7,30.44,WNW,294,4.0,5.0,51,0.00,,,0.00,LWC V2.11 B50,2013-01-10 19:00:00,
2013-01-10 14:05:00,48.0,30.7,30.44,WNW,303,1.0,1.0,51,0.00,,,0.00,LWC V2.11 B50,2013-01-10 19:05:00,
2013-01-10 14:10:00,48.3,30.5,30.44,WNW,291,0.0,10.0,50,0.00,,,0.00,LWC V2.11 B50,2013-01-10 19:10:00,
2013-01-10 14:15:00,48.4,31.1,30.44,WNW,292,6.0,7.0,51,0.00,,,0.00,LWC V2.11 B50,2013-01-10 19:15:00,
2013-01-10 14:20:00,48.4,30.6,30.44,NW,304,3.0,11.0,50,0.00,,,0.00,LWC V2.11 B50,2013-01-10 19:20:00,
2013-01-10 14:25:00,48.4,30.1,30.44,WNW,302,0.0,9.0,49,0.00,,,0.00,LWC V2.11 B50,2013-01-10 19:25:00,
2013-01-10 14:30:00,48.3,30.0,30.44,WNW,292,6.0,11.0,49,0.00,,,0.00,LWC V2.11 B50,2013-01-10 19:30:00,
2013-01-10 14:35:00,48.5,30.2,30.45,WNW,291,6.0,7.0,49,0.00,,,0.00,LWC V2.11 B50,2013-01-10 19:35:00,
2013-01-10 14:40:00,48.4,30.1,30.45,NW,304,2.0,7.0,49,0.00,,,0.00,LWC V2.11 B50,2013-01-10 19:40:00,
2013-01-10 14:45:00,48.3,30.0,30.45,WNW,299,5.0,10.0,49,0.00,,,0.00,LWC V2.11 B50,2013-01-10 19:45:00,
2013-01-10 14:50:00,48.3,31.0,30.45,WNW,291,0.0,3.0,51,0.00,,,0.00,LWC V2.11 B50,2013-01-10 19:50:00,
2013-01-10 14:55:00,48.7,30.9,30.45,West,276,4.0,5.0,50,0.00,,,0.00,LWC V2.11 B50,2013-01-10 19:55:00,
2013-01-10 15:00:00,48.6,30.3,30.46,West,280,3.0,7.0,49,0.00,,,0.00,LWC V2.11 B50,2013-01-10 20:00:00,
2013-01-10 15:05:00,48.5,30.2,30.46,WNW,296,6.0,6.0,49,0.00,,,0.00,LWC V2.11 B50,2013-01-10 20:05:00,
2013-01-10 15:10:00,48.5,30.2,30.46,West,280,3.0,4.0,49,0.00,,,0.00,LWC V2.11 B50,2013-01-10 20:10:00,
2013-01-10 15:15:00,48.5,30.2,30.46,WNW,300,1.0,2.0,49,0.00,,,0.00,LWC V2.11 B50,2013-01-10 20:15:00,
2013-01-10 15:20:00,48.4,30.1,30.46,WNW,293,0.0,6.0,49,0.00,,,0.00,LWC V2.11 B50,2013-01-10 20:20:00,
2013-01-10 15:25:00,48.4,30.1,30.45,WNW,286,1.0,7.0,49,0.00,,,0.00,LWC V2.11 B50,2013-01-10 20:25:00,
2013-01-10 15:30:00,48.3,30.5,30.45,WNW,303,4.0,8.0,50,0.00,,,0.00,LWC V2.11 B50,2013-01-10 20:30:00,
2013-01-10 15:35:00,48.2,29.9,30.45,West,279,9.0,9.0,49,0.00,,,0.00,LWC V2.11 B50,2013-01-10 20:35:00,
2013-01-10 15:40:00,48.2,29.9,30.45,West,278,0.0,1.0,49,0.00,,,0.00,LWC V2.11 B50,2013-01-10 20:40:00,
2013-01-10 15:45:00,48.2,30.4,30.45,NW,304,1.0,1.0,50,0.00,,,0.00,LWC V2.11 B50,2013-01-10 20:45:00,
2013-01-10 15:50:00,48.1,29.9,30.45,WNW,295,4.0,7.0,49,0.00,,,0.00,LWC V2.11 B50,2013-01-10 20:50:00,
2013-01-10 15:55:00,48.0,30.3,30.45,WNW,294,0.0,6.0,50,0.00,,,0.00,LWC V2.11 B50,2013-01-10 20:55:00,
2013-01-10 16:00:00,47.8,30.1,30.45,West,281,5.0,7.0,50,0.00,,,0.00,LWC V2.11 B50,2013-01-10 21:00:00,
2013-01-10 16:05:00,47.7,30.0,30.45,WNW,299,6.0,7.0,50,0.00,,,0.00,LWC V2.11 B50,2013-01-10 21:05:00,
2013-01-10 16:10:00,47.5,30.3,30.45,WNW,291,0.0,5.0,51,0.00,,,0.00,LWC V2.11 B50,2013-01-10 21:10:00,
2013-01-10 16:15:00,47.4,30.7,30.45,WNW,293,0.0,2.0,52,0.00,,,0.00,LWC V2.11 B50,2013-01-10 21:15:00,
2013-01-10 16:20:00,47.3,30.1,30.46,WNW,288,1.0,5.0,51,0.00,,,0.00,LWC V2.11 B50,2013-01-10 21:20:00,
2013-01-10 16:25:00,47.2,30.5,30.46,WNW,299,1.0,1.0,52,0.00,,,0.00,LWC V2.11 B50,2013-01-10 21:25:00,
2013-01-10 16:30:00,46.9,30.2,30.46,WNW,292,0.0,1.0,52,0.00,,,0.00,LWC V2.11 B50,2013-01-10 21:30:00,
2013-01-10 16:35:00,46.7,30.0,30.46,WNW,285,0.0,1.0,52,0.00,,,0.00,LWC V2.11 B50,2013-01-10 21:35:00,
2013-01-10 16:40:00,46.4,30.2,30.46,WNW,290,0.0,0.0,53,0.00,,,0.00,LWC V2.11 B50,2013-01-10 21:40:00,
2013-01-10 16:45:00,46.1,29.9,30.46,WNW,290,0.0,0.0,53,0.00,,,0.00,LWC V2.11 B50,2013-01-10 21:45:00,
2013-01-10 16:50:00,45.8,29.7,30.46,WNW,290,0.0,0.0,53,0.00,,,0.00,LWC V2.11 B50,2013-01-10 21:50:00,
2013-01-10 16:55:00,45.5,29.8,30.47,WNW,290,0.0,0.0,54,0.00,,,0.00,LWC V2.11 B50,2013-01-10 21:55:00,
2013-01-10 17:00:00,45.2,29.6,30.47,WNW,290,0.0,0.0,54,0.00,,,0.00,LWC V2.11 B50,2013-01-10 22:00:00,
2013-01-10 17:05:00,44.9,29.3,30.46,WNW,290,0.0,0.0,54,0.00,,,0.00,LWC V2.11 B50,2013-01-10 22:05:00,
2013-01-10 17:10:00,44.6,29.4,30.46,WNW,290,0.0,0.0,55,0.00,,,0.00,LWC V2.11 B50,2013-01-10 22:10:00,
2013-01-10 17:15:00,44.2,29.5,30.47,WNW,290,0.0,0.0,56,0.00,,,0.00,LWC V2.11 B50,2013-01-10 22:15:00,
2013-01-10 17:20:00,43.7,29.0,30.47,WNW,290,0.0,0.0,56,0.00,,,0.00,LWC V2.11 B50,2013-01-10 22:20:00,
2013-01-10 17:25:00,43.2,29.0,30.47,WNW,290,0.0,0.0,57,0.00,,,0.00,LWC V2.11 B50,2013-01-10 22:25:00,
2013-01-10 17:30:00,42.7,29.0,30.47,WNW,290,0.0,0.0,58,0.00,,,0.00,LWC V2.11 B50,2013-01-10 22:30:00,
2013-01-10 17:35:00,42.3,29.0,30.48,WNW,290,0.0,0.0,59,0.00,,,0.00,LWC V2.11 B50,2013-01-10 22:35:00,
2013-01-10 17:40:00,41.9,29.0,30.47,WNW,290,0.0,0.0,60,0.00,,,0.00,LWC V2.11 B50,2013-01-10 22:40:00,
2013-01-10 17:45:00,41.5,29.1,30.47,WNW,290,0.0,0.0,61,0.00,,,0.00,LWC V2.11 B50,2013-01-10 22:45:00,
2013-01-10 17:50:00,41.0,29.0,30.48,WNW,290,0.0,0.0,62,0.00,,,0.00,LWC V2.11 B50,2013-01-10 22:50:00,
2013-01-10 17:55:00,40.5,28.5,30.48,WNW,290,0.0,0.0,62,0.00,,,0.00,LWC V2.11 B50,2013-01-10 22:55:00,
2013-01-10 18:00:00,39.9,28.3,30.48,WNW,290,0.0,0.0,63,0.00,,,0.00,LWC V2.11 B50,2013-01-10 23:00:00,
2013-01-10 18:05:00,39.5,28.3,30.48,WNW,290,0.0,0.0,64,0.00,,,0.00,LWC V2.11 B50,2013-01-10 23:05:00,
2013-01-10 18:10:00,39.2,28.8,30.48,WNW,290,0.0,0.0,66,0.00,,,0.00,LWC V2.11 B50,2013-01-10 23:10:00,
2013-01-10 18:15:00,38.8,28.4,30.48,WNW,290,0.0,0.0,66,0.00,,,0.00,LWC V2.11 B50,2013-01-10 23:15:00,
2013-01-10 18:20:00,38.4,28.4,30.48,WNW,290,0.0,0.0,67,0.00,,,0.00,LWC V2.11 B50,2013-01-10 23:20:00,
2013-01-10 18:25:00,38.2,28.6,30.48,WNW,290,0.0,0.0,68,0.00,,,0.00,LWC V2.11 B50,2013-01-10 23:25:00,
2013-01-10 18:30:00,37.8,28.2,30.48,WNW,290,0.0,0.0,68,0.00,,,0.00,LWC V2.11 B50,2013-01-10 23:30:00,
2013-01-10 18:35:00,37.3,28.1,30.47,WNW,290,0.0,0.0,69,0.00,,,0.00,LWC V2.11 B50,2013-01-10 23:35:00,
2013-01-10 18:40:00,37.0,28.1,30.47,WNW,290,0.0,0.0,70,0.00,,,0.00,LWC V2.11 B50,2013-01-10 23:40:00,
2013-01-10 18:45:00,36.7,28.2,30.47,WNW,290,0.0,0.0,71,0.00,,,0.00,LWC V2.11 B50,2013-01-10 23:45:00,
2013-01-10 18:50:00,36.7,28.5,30.47,WNW,290,0.0,0.0,72,0.00,,,0.00,LWC V2.11 B50,2013-01-10 23:50:00,
2013-01-10 18:55:00,36.7,28.5,30.47,WNW,290,0.0,0.0,72,0.00,,,0.00,LWC V2.11 B50,2013-01-10 23:55:00,
2013-01-10 19:00:00,36.5,28.3,30.47,WNW,290,0.0,0.0,72,0.00,,,0.00,LWC V2.11 B50,2013-01-11 00:00:00,
2013-01-10 19:05:00,36.2,28.4,30.47,WNW,290,0.0,0.0,73,0.00,,,0.00,LWC V2.11 B50,2013-01-11 00:05:00,
2013-01-10 19:10:00,36.0,28.2,30.47,WNW,290,0.0,0.0,73,0.00,,,0.00,LWC V2.11 B50,2013-01-11 00:10:00,
2013-01-10 19:15:00,35.8,28.0,30.47,WNW,290,0.0,0.0,73,0.00,,,0.00,LWC V2.11 B50,2013-01-11 00:15:00,
2013-01-10 19:20:00,35.6,28.1,30.47,WNW,290,0.0,0.0,74,0.00,,,0.00,LWC V2.11 B50,2013-01-11 00:20:00,
2013-01-10 19:25:00,35.6,28.1,30.47,WNW,290,0.0,0.0,74,0.00,,,0.00,LWC V2.11 B50,2013-01-11 00:25:00,
2013-01-10 19:30:00,35.8,28.7,30.48,WNW,290,0.0,0.0,75,0.00,,,0.00,LWC V2.11 B50,2013-01-11 00:30:00,
2013-01-10 19:35:00,36.1,28.6,30.47,WNW,290,0.0,0.0,74,0.00,,,0.00,LWC V2.11 B50,2013-01-11 00:35:00,
2013-01-10 19:40:00,36.3,28.8,30.47,WNW,290,0.0,0.0,74,0.00,,,0.00,LWC V2.11 B50,2013-01-11 00:40:00,
2013-01-10 19:45:00,36.3,28.8,30.48,WNW,290,0.0,0.0,74,0.00,,,0.00,LWC V2.11 B50,2013-01-11 00:45:00,
2013-01-10 19:50:00,36.1,28.6,30.48,WNW,290,0.0,0.0,74,0.00,,,0.00,LWC V2.11 B50,2013-01-11 00:50:00,
2013-01-10 19:55:00,36.2,28.7,30.48,WNW,290,0.0,0.0,74,0.00,,,0.00,LWC V2.11 B50,2013-01-11 00:55:00,
2013-01-10 20:00:00,36.2,28.7,30.48,WNW,290,0.0,0.0,74,0.00,,,0.00,LWC V2.11 B50,2013-01-11 01:00:00,
2013-01-10 20:05:00,36.2,28.7,30.48,WNW,290,0.0,0.0,74,0.00,,,0.00,LWC V2.11 B50,2013-01-11 01:05:00,
2013-01-10 20:10:00,36.2,28.7,30.48,WNW,290,0.0,0.0,74,0.00,,,0.00,LWC V2.11 B50,2013-01-11 01:10:00,
2013-01-10 20:15:00,36.3,28.8,30.48,WNW,290,0.0,0.0,74,0.00,,,0.00,LWC V2.11 B50,2013-01-11 01:15:00,
2013-01-10 20:20:00,36.3,28.8,30.48,WNW,290,0.0,0.0,74,0.00,,,0.00,LWC V2.11 B50,2013-01-11 01:20:00,
2013-01-10 20:25:00,36.4,28.9,30.48,WNW,290,0.0,0.0,74,0.00,,,0.00,LWC V2.11 B50,2013-01-11 01:25:00,
2013-01-10 20:30:00,36.5,28.7,30.48,WNW,290,0.0,0.0,73,0.00,,,0.00,LWC V2.11 B50,2013-01-11 01:30:00,
2013-01-10 20:35:00,36.6,28.8,30.47,WNW,290,0.0,0.0,73,0.00,,,0.00,LWC V2.11 B50,2013-01-11 01:35:00,
2013-01-10 20:40:00,37.0,28.8,30.47,WNW,290,0.0,0.0,72,0.00,,,0.00,LWC V2.11 B50,2013-01-11 01:40:00,
2013-01-10 20:45:00,37.3,28.8,30.47,WNW,290,0.0,0.0,71,0.00,,,0.00,LWC V2.11 B50,2013-01-11 01:45:00,
2013-01-10 20:50:00,37.7,28.8,30.47,WNW,290,0.0,0.0,70,0.00,,,0.00,LWC V2.11 B50,2013-01-11 01:50:00,
2013-01-10 20:55:00,37.8,28.6,30.47,WNW,290,0.0,0.0,69,0.00,,,0.00,LWC V2.11 B50,2013-01-11 01:55:00,
2013-01-10 21:00:00,38.0,28.7,30.47,WNW,290,0.0,0.0,69,0.00,,,0.00,LWC V2.11 B50,2013-01-11 02:00:00,
2013-01-10 21:05:00,38.0,28.7,30.47,WNW,290,0.0,0.0,69,0.00,,,0.00,LWC V2.11 B50,2013-01-11 02:05:00,
2013-01-10 21:10:00,38.0,28.7,30.47,WNW,290,0.0,0.0,69,0.00,,,0.00,LWC V2.11 B50,2013-01-11 02:10:00,
2013-01-10 21:15:00,38.1,28.8,30.47,WNW,290,0.0,0.0,69,0.00,,,0.00,LWC V2.11 B50,2013-01-11 02:15:00,
2013-01-10 21:20:00,38.3,29.0,30.48,WNW,290,0.0,0.0,69,0.00,,,0.00,LWC V2.11 B50,2013-01-11 02:20:00,
2013-01-10 21:25:00,38.5,28.9,30.48,WNW,290,0.0,0.0,68,0.00,,,0.00,LWC V2.11 B50,2013-01-11 02:25:00,
2013-01-10 21:30:00,38.7,29.1,30.48,WNW,290,0.0,0.0,68,0.00,,,0.00,LWC V2.11 B50,2013-01-11 02:30:00,
2013-01-10 21:35:00,38.7,29.1,30.47,WNW,290,0.0,0.0,68,0.00,,,0.00,LWC V2.11 B50,2013-01-11 02:35:00,
2013-01-10 21:40:00,38.6,29.0,30.48,WNW,290,0.0,0.0,68,0.00,,,0.00,LWC V2.11 B50,2013-01-11 02:40:00,
2013-01-10 21:45:00,38.2,28.6,30.49,WNW,290,0.0,0.0,68,0.00,,,0.00,LWC V2.11 B50,2013-01-11 02:45:00,
2013-01-10 21:50:00,38.0,28.4,30.49,WNW,290,0.0,0.0,68,0.00,,,0.00,LWC V2.11 B50,2013-01-11 02:50:00,
2013-01-10 21:55:00,37.7,28.5,30.48,WNW,290,0.0,0.0,69,0.00,,,0.00,LWC V2.11 B50,2013-01-11 02:55:00,
2013-01-10 22:00:00,37.5,28.6,30.49,WNW,290,0.0,0.0,70,0.00,,,0.00,LWC V2.11 B50,2013-01-11 03:00:00,
2013-01-10 22:05:00,37.3,28.4,30.48,WNW,290,0.0,0.0,70,0.00,,,0.00,LWC V2.11 B50,2013-01-11 03:05:00,
2013-01-10 22:10:00,37.1,28.2,30.48,WNW,290,0.0,0.0,70,0.00,,,0.00,LWC V2.11 B50,2013-01-11 03:10:00,
2013-01-10 22:15:00,36.8,28.3,30.48,WNW,290,0.0,0.0,71,0.00,,,0.00,LWC V2.11 B50,2013-01-11 03:15:00,
2013-01-10 22:20:00,36.4,28.2,30.48,WNW,290,0.0,0.0,72,0.00,,,0.00,LWC V2.11 B50,2013-01-11 03:20:00,
2013-01-10 22:25:00,36.0,28.2,30.48,WNW,290,0.0,0.0,73,0.00,,,0.00,LWC V2.11 B50,2013-01-11 03:25:00,
2013-01-10 22:30:00,35.8,28.0,30.48,WNW,290,0.0,0.0,73,0.00,,,0.00,LWC V2.11 B50,2013-01-11 03:30:00,
2013-01-10 22:35:00,35.5,28.0,30.48,WNW,290,0.0,0.0,74,0.00,,,0.00,LWC V2.11 B50,2013-01-11 03:35:00,
2013-01-10 22:40:00,35.3,28.2,30.48,WNW,290,0.0,0.0,75,0.00,,,0.00,LWC V2.11 B50,2013-01-11 03:40:00,
2013-01-10 22:45:00,35.0,27.9,30.49,WNW,290,0.0,0.0,75,0.00,,,0.00,LWC V2.11 B50,2013-01-11 03:45:00,
2013-01-10 22:50:00,34.8,28.0,30.49,WNW,290,0.0,0.0,76,0.00,,,0.00,LWC V2.11 B50,2013-01-11 03:50:00,
2013-01-10 22:55:00,34.7,27.9,30.49,WNW,290,0.0,0.0,76,0.00,,,0.00,LWC V2.11 B50,2013-01-11 03:55:00,
2013-01-10 23:00:00,34.6,28.1,30.49,WNW,290,0.0,0.0,77,0.00,,,0.00,LWC V2.11 B50,2013-01-11 04:00:00,
2013-01-10 23:05:00,34.6,28.1,30.49,WNW,290,0.0,0.0,77,0.00,,,0.00,LWC V2.11 B50,2013-01-11 04:05:00,
2013-01-10 23:10:00,34.4,28.0,30.48,WNW,290,0.0,0.0,77,0.00,,,0.00,LWC V2.11 B50,2013-01-11 04:10:00,
2013-01-10 23:15:00,34.2,27.8,30.48,WNW,290,0.0,0.0,77,0.00,,,0.00,LWC V2.11 B50,2013-01-11 04:15:00,
2013-01-10 23:20:00,34.1,28.0,30.48,WNW,290,0.0,0.0,78,0.00,,,0.00,LWC V2.11 B50,2013-01-11 04:20:00,
2013-01-10 23:25:00,34.0,27.9,30.47,WNW,290,0.0,0.0,78,0.00,,,0.00,LWC V2.11 B50,2013-01-11 04:25:00,
2013-01-10 23:30:00,34.1,28.3,30.47,WNW,290,0.0,0.0,79,0.00,,,0.00,LWC V2.11 B50,2013-01-11 04:30:00,
2013-01-10 23:35:00,34.1,28.0,30.47,WNW,290,0.0,0.0,78,0.00,,,0.00,LWC V2.11 B50,2013-01-11 04:35:00,
2013-01-10 23:40:00,33.9,27.8,30.47,WNW,290,0.0,0.0,78,0.00,,,0.00,LWC V2.11 B50,2013-01-11 04:40:00,
2013-01-10 23:45:00,33.7,27.9,30.47,WNW,290,0.0,0.0,79,0.00,,,0.00,LWC V2.11 B50,2013-01-11 04:45:00,
2013-01-10 23:50:00,33.6,27.8,30.48,WNW,290,0.0,0.0,79,0.00,,,0.00,LWC V2.11 B50,2013-01-11 04:50:00,
2013-01-10 23:55:00,33.6,27.8,30.48,WNW,290,0.0,0.0,79,0.00,,,0.00,LWC V2.11 B50,2013-01-11 04:55:00,